Regional Weather Roundup
Issued by NWS Wakefield, VA

Home | Current Version | Previous Version | Text Only | Print | Product List | Glossary On
Versions: 1 2 3 4 5 6 7 8 9 10 11 12 13 14 15 16 17 18 19 20 21 22 23 24 25 26 27 28 29 30 31 32 33 34 35 36 37 38 39 40 41 42 43 44 45 46 47 48 49 50
000
ASUS41 KAKQ 122215
RWRAKQ

REGIONAL WEATHER ROUNDUP
NATIONAL WEATHER SERVICE WAKEFIELD VA
500 PM EST FRI FEB 12 2016

Note: "fair" indicates few or no clouds below 12,000 feet with no
significant weather and/or obstructions to visibility. * = Denotes
station may not report precipitation (e.g., rain,snow,etc.),
thunder or fog.

VAZ042-051-052>054-056-122300-
NORTHERN VIRGINIA

CITY           SKY/WX    TMP DP  RH WIND       PRES   REMARKS
WASH NATIONAL  CLOUDY    29  10  45 SE5       30.04F
DULLES         MOCLDY    29   7  39 S7        30.01S
FORT BELVOIR   CLOUDY    29   8  40 SW6       30.03F
QUANTICO       CLOUDY    32  12  43 S8        30.03F
FREDERICKSBRG* MOCLDY    31  11  43 S8        30.00F
STAFFORD*      CLOUDY    30   9  40 SE5       30.04F
WARRENTON      FAIR      32  12  44 S5        29.99F
CULPEPER*      MOCLDY    30   8  39 S5        30.00F
MANASSAS*      PTCLDY    30  10  43 SW3       30.01F
LEESBURG*      CLOUDY    32  14  47 S3        30.00F
WINCHESTER     CLOUDY    30  12  47 SE5       29.95F
FRONT ROYAL*   CLOUDY    30  10  43 NE6       29.94F
LURAY*         CLOUDY    32  10  40 CALM      29.92S
$$

VAZ048-049-060>072-079>083-122300-
CENTRAL AND SOUTH CENTRAL VIRGINIA

CITY           SKY/WX    TMP DP  RH WIND       PRES   REMARKS
RICHMOND       CLOUDY    28  13  53 S6        30.02F
CHESTERFIELD*  CLOUDY    28   7  40 S8        30.03F
PETERSBURG*    CLOUDY    30  17  60 S5        30.03F
HANOVER        CLOUDY    28  14  55 S8        30.04F
TAPPAHANNOCK*  CLOUDY    29  15  54 SW7       30.04S
QUINTON*       CLOUDY    29  14  53 S5        30.02F
CHARLOTTSVILLE CLOUDY    32  11  41 S10       29.96F WCI  24
GORDONSVILLE*  CLOUDY    31  10  41 S5        29.97F
ORANGE*        MOCLDY    32  10  40 S8        29.99F
LOUISA*        CLOUDY    30   9  40 S6        29.97F
BUMPASS*       CLOUDY    30  10  42 CALM      30.00F
FARMVILLE*     CLOUDY    30  19  62 SW5       30.01R
CREWE*         CLOUDY    29  19  66 CALM      30.01S
FORT PICKETT*  CLOUDY    28  20  72 S5        30.00F
CHASE CITY*    FAIR      29  18  65 CALM      30.00F
CLARKSVILLE*   FAIR      30  18  59 CALM      30.00F
SOUTH HILL*    CLOUDY    28  20  72 CALM      30.07F
LAWRENCEVILLE* CLOUDY    27  21  76 CALM      30.02F
EMPORIA*       CLOUDY    28  21  74 CALM      30.04F
$$

VAZ088>098-122300-
SOUTHEAST VIRGINIA

CITY           SKY/WX    TMP DP  RH WIND       PRES   REMARKS
NORFOLK        LGT SNOW  27  22  81 CALM      30.04F
VIRGINIA BEACH LGT SNOW  31  24  75 CALM      30.03F
NORFOLK NAVAL  LGT SNOW  28  23  81 VRB3      30.06F FOG
WEST POINT*    CLOUDY    29  18  62 SE9       30.04F
SALUDA*        CLOUDY    27  20  75 S7        30.03F
NEWPORT NEWS   CLOUDY    26  23  88 SE3       30.04F
LANGLEY AFB    LGT SNOW  27  23  86 SE5       30.03F FOG
FORT EUSTIS    CLOUDY    27  23  86 SE3       30.02F
WILLIAMSBURG*  MOCLDY    30  25  80 S9        30.05F
HR EXEC AP*    MOCLDY    28  23  80 CALM      30.06F
FRANKLIN*      LGT SNOW  27  23  84 CALM      30.06F
US460-WAKEFLD  CLOUDY    28  22  78 CALM      30.04F
$$

VAZ020-022-025-037-045-122300-
WEST CENTRAL AND SOUTHWEST VIRGINIA

CITY           SKY/WX    TMP DP  RH WIND       PRES   REMARKS
STAUNTON*      CLOUDY    36  15  42 S10       29.93R
WAYNESBORO*    CLOUDY    31  12  44 SW6       29.90S
HOT SPRINGS VA LGT SNOW N/A N/A N/A W14G22    29.77R
LYNCHBURG      CLOUDY    28  17  63 S8        29.98F
DANVILLE       FAIR      34  14  43 S5        30.01F
SOUTH BOSTON*  MOCLDY    30  17  57 CALM      30.02S
MARTINSVILLE   CLOUDY    31  13  47 SW5       30.01S
ROANOKE        CLOUDY    30  17  58 SE8       29.97F
BLACKSBURG     CLOUDY    30  26  84 W5        29.93F
DUBLIN*        MIX PCPN  33  27  78 W10       29.93S
MARION*        CLOUDY    30  26  84 W25G32    29.93R WCI  16
HILLSVILLE*    CLOUDY    31  25  77 W21G31    29.87F WCI  19
RICHLANDS*     CLOUDY    28  24  84 W8        29.96R
WISE*          CLOUDY    30  19  64 W8        30.00R
ABINGDON*      CLOUDY    32  26  80 W13G20    30.00R WCI  22
$$

MDZ021>025-VAZ099-100-122300-
SOUTHERN MARYLAND AND THE DELMARVA PENINSULA

CITY           SKY/WX    TMP DP  RH WIND       PRES   REMARKS
PATUXENT RIVER CLOUDY    27  13  55 SE7       30.03F
BAY BRIDGE APT   N/A     28   7  40 CALM      30.05S
LEONARDTOWN    CLOUDY    28  12  50 SE3       30.04F
DOVER          CLOUDY    26  13  57 E6        30.03F
GEORGETOWN     CLOUDY    29   6  38 CALM      30.04F
EASTON         NOT AVBL
CAMBRIDGE      CLOUDY    27  12  54 S7        30.04F
SALISBURY      CLOUDY    28   8  43 SW6       30.03F
OCEAN CITY     CLOUDY    27  11  51 S6        30.04F
WALLOPS ISLAND MOCLDY    27  13  55 S9        30.05F
ACCOMACK*      LGT SNOW  27  18  69 S12       30.05S WCI  16
$$

NCZ012>017-030>032-122300-
NORTH CENTRAL AND EASTERN NORTH CAROLINA

CITY           SKY/WX    TMP DP  RH WIND       PRES   REMARKS
ROANOKE RAPIDS CLOUDY    30  23  74 CALM      30.05F
RALEIGH        MOCLDY    31  20  63 CALM      30.03F
ELIZABETH CITY LGT SNOW  29  27  92 NE7       30.03F FOG
AHOSKIE*       NOT AVBL
EDENTON*       MIX PCPN  31  30  95 NE5       30.04F
CURRITUCK*     LGT SNOW  30  29  99 NE3       30.04F
KILL DEVIL HLS LGT SNOW  32  30  93 CALM      30.01F VSB 3/4
MANTEO         LGT SNOW  32  32 100 NE10      30.03S WCI  23
CAPE HATTERAS  LGT RAIN  35  34  96 N13G21    30.00R
TARBORO*       CLOUDY    30  26  86 CALM      30.06F
GOLDSBORO      CLOUDY    30  30 100 N2        30.02F
WASHINGTON     DRIZZLE   30  28  92 NW3       30.04S
GREENVILLE     CLOUDY    32  30  93 CALM      30.06F
NEW BERN       CLOUDY    33  30  88 N8        30.04F
WILMINGTON     CLOUDY    36  31  82 N8        30.03S
$$

VAZ048-122300-
ELSEWHERE

CITY           SKY/WX    TMP DP  RH WIND       PRES   REMARKS
HARRISBURG PA  CLOUDY    23  10  57 W7        30.02F
BALTIMORE      LGT SNOW  25  14  63 E8        30.04S
ANNAPOLIS      CLOUDY    27  12  53 SE10      30.04F WCI  17
ANDREWS AFB    FAIR      28  10  48 SE5       30.01F
PHILADELPHIA   CLOUDY    25   2  37 SW7       30.06F
HENDERSON NC   CLOUDY    31  11  41 S3        30.01F
GREENSBORO     PTSUNNY   36  16  44 S8        29.97F
ROCKY MOUNT    CLOUDY    29  24  82 NW5       30.05S
$$

VAZ100-122300-
MARINE

STATION/POSITION TIME  TEMP    WIND        PRES    WAVE   SWELL
                       AIR SEA DIR/SP/G            HT/PER HT/PER
                 (UTC) (F)     (DEG/KT/KT) (MB)    (FT/S) (FT/S)
BRANDYWINE LGT   2100   25     130/  3/  6 1018.6F
CAPE MAY NJ      2100   25 37  120/  5/  8 1018.4F
LEWES DE         2100   28 38  170/  5/  9 1018.2F
15NM E FENWICK I 2150   26 42              1018.0F   1/11
OCEAN-CITY-INLET 2100   27 40  200/  7/  9 1017.7F
WACHAPREAGUE VA  2100   26 36  160/  3/  5 1018.1F
THOMAS POINT MD  2200   27 36  160/  9/ 11 1018.0F
GOOSES REEF MD   2100   27 38  160/ 14/ 16 1018.5F   2/ 3
COVE POINT MD    2100   25     180/ 12/ 16 1018.2F
SOLOMONS ISLAND  2100   28 39  190/  8/ 11   N/A
BISHOPS HEAD MD  2100   26 35  160/  9/ 12 1017.2F
PINEY POINT MD   2100          170/  8/  9   N/A
POTOMAC MD       2100   27 39  180/ 12/ 14 1017.0F   1
CAMBRIDGE MD     2100   28 36  180/  6/  9 1017.1F
LEWISETTA VA     2100   29 37  240/  8/ 11 1017.3F
RAPPAHANNOCK LGT 2100          140/  6/  7 1017.9F
STINGRAY PT      2100   27 40  170/  6/  8 1017.9F
YORK RVR RNG VA  2100   27     180/ 10/ 11 1017.9F
YORKTOWN VA      2100   27 41  180/  5/  8 1018.4F
JAMESTOWN VA     2100   26 41  160/  6/  8   N/A     0
DOMINION TERM VA 2100   26     140/  4/  5 1018.5F
KIPTOPEKE VA     2100      40  130/  4/  6   N/A
CHES BAY BRIDGE  2100   26 41  130/  4/  7 1018.1F
CAPE HENRY VA    2100   26     150/  3/  4   N/A
CHESAPEAKE LGHT  2100   27      90/  7/  9 1018.8F
WILLOUBY STN VA  2100   26     130/  6/  7 1019.2F
CAPE HENRY BUOY  2128      42                N/A     1/ 9
1ST LANDING BUOY 2100      41                N/A     1
CAPE CHARLES BUO 2126      42                N/A     1/11   2/11
OFFSHORE WE BUOY 2121      44                N/A     2/ 9   2/ 9
64NM E OF VA BCH 2150   31 48   40/ 10/ 12 1016.9F   2/ 6   2/ 6
DUCK PIER NC     2100   30      30/ 10/ 12 1017.0F
44100 DUCK FRF   2124      45                N/A     2/ 5
44056 DUCK FRF   2111      42                N/A     2/ 5
OREGON INLET NC  2100   31 41   10/ 14/ 19 1016.3F
HATTERAS NC      2100   35 47   40/ 18/ 26 1013.4F
DIAMOND SHLS NC  2150   46 59   20/ 21/ 25 1013.8F   6/ 6
$$



USA.gov is the U.S. government's official web portal to all federal, state and local government web resources and services.